Showing default

HULIANWANG DIGUI-14, 62974

Orbit data source: Space-Track

HULIANWANG DIGUI-14, 62974 is a payload satellite owned by Zhongguo Xingwang (CN) in LEO that was launched on Tue, 11 Feb 2025 UTC via a CHANG ZHENG 8A launch vehicle from the Wenchang Satellite Launch Center (WSC). Payload-class satellites include a variety of spacecraft equipped with specific instruments for various scientific and technological missions. These include communications satellites like Starlink; space stations such as the ISS; scientific satellites like the Hubble; Earth observation satellites from companies like Planet Labs, Umbra, and HawkEye 360; GPS; miniature CubeSats for education and research; and military/defense satellites.

Loading next visibility...
Identifier
62974, 2025-030D
Orbit
LEO
Country
Flag of CNCN / PRC
Related business
Manufacturer
CAST
Mission
Operational Civil Communications
Bus & Motor
GUOWANG C, Unknown motor
Mass
~800 kg wet, ~800 kg dry
Launch date (UTC)
2025-02-11 (7 months ago)
Launch vehicle
CHANG ZHENG 8A
Launch site
Wenchang Satellite Launch Center (WSC)
Object type
Payload
Rocket body
Debris
Shape & HBR
Box + 2 Pan, 5.0 m
Radar Cross Section
5.935 m², Large (>1 m²)

Expand to show TLE details & history
Last TLE update: 4 hours ago

TLE from 4 hours ago
0 HULIANWANG DIGUI-14
1 62974U 25030D   25243.61139383 -.00000054  00000-0  15122-3 0  9992
2 62974  50.0014 194.2199 0001085 349.5921  10.4929 13.29329552 27344
Epoch: 2025-08-31T14:40Z
TLE epoch observation values (Epoch: 2025-08-31T14:40:24.426Z)
Latitude
Longitude
-5.91072°
Altitude
1,148.996 km
Speed
7.28 km/s
True Right ascension
12h 56m 52s
True Declination
0° 00' 00"
Sunlit
Object was in daylight at epoch
Visualization orbit readout
Latitude
Unknown
Longitude
Unknown
Altitude
Unknown
Speed
Unknown
Apparent Right ascension
Unknown
Apparent Declination
Unknown
Sunlit
N/A
Visualization observer readout
Local Sidereal Time
10:25:06
Azimuth
Unknown
Elevation
Unknown
Doppler factor
Unknown
Orbital elements
Apogee altitude
1,150.815 km
Perigee altitude
1,149.182 km
Semi-major axis
7,528.135 km
Eccentricity
0.00011
Inclination
50.0014°
RAAN
194.2199°
Arg. of periapsis
349.5921°
True anomaly
10.49516°
Mean anomaly
10.4929°
Eccentric anomaly
10.49403°
Mean motion
3.32286 °/min
Orbital period
108.34 mins
BSTAR
0.00015122
Loading maneuver chart data...
Computing Atmospheric mass density...
Loading historical data...
Loading historical data...
Loading historical data...
Loading historical data...
Loading historical data...
Loading historical data...
Loading historical data...

Documentation

Showing up to 5 results
|